This is the latest recevied weather packets stored in our database for station/object W0PE-1. If no packets are shown the sender has not sent any weather packets the latest 10 day(s).
| Time | Temp. | Humidity | Pressure | Rain* | Wind** | Luminosity | Snow |
|---|---|---|---|---|---|---|---|
| 1778152526 | 12.78° C | 83% | 1015.3 hPa | 0 mm | - | - | - |
| 1778151617 | 12.78° C | 83% | 1015.3 hPa | 0 mm | - | - | - |
| 1778150719 | 12.78° C | 83% | 1015.4 hPa | 0 mm | - | - | - |
| 1778149814 | 13.33° C | 82% | 1015.5 hPa | 0 mm | - | - | - |
| 1778148912 | 13.33° C | 82% | 1015.5 hPa | 0 mm | - | - | - |
| 1778148016 | 13.33° C | 82% | 1015.6 hPa | 0 mm | - | - | - |
| 1778147109 | 13.33° C | 81% | 1015.6 hPa | 0 mm | - | - | - |
| 1778146207 | 13.33° C | 80% | 1015.8 hPa | 0 mm | - | - | - |
| 1778145303 | 13.89° C | 80% | 1016.1 hPa | 0 mm | - | - | - |
| 1778144403 | 13.89° C | 80% | 1016.2 hPa | 0 mm | - | - | - |
| 1778143560 | 13.89° C | 79% | 1016.4 hPa | 0 mm | - | - | - |
| 1778142660 | 14.44° C | 79% | 1016.4 hPa | 0 mm | - | - | - |
| 1778141757 | 14.44° C | 78% | 1016.4 hPa | 0 mm | - | - | - |
| 1778140854 | 14.44° C | 77% | 1016.5 hPa | 0 mm | - | - | - |
| 1778139952 | 15° C | 76% | 1016.5 hPa | 0 mm | - | - | - |
| 1778139055 | 15° C | 76% | 1016.5 hPa | 0 mm | - | - | - |
| 1778138152 | 15.56° C | 75% | 1016.6 hPa | 0 mm | - | - | - |
| 1778137246 | 15.56° C | 75% | 1016.6 hPa | 0 mm | - | - | - |
| 1778136347 | 16.11° C | 74% | 1016.7 hPa | 0 mm | - | - | - |
| 1778135449 | 16.11° C | 74% | 1016.8 hPa | 0 mm | - | - | - |
| 1778134544 | 16.67° C | 73% | 1016.8 hPa | 0 mm | - | - | - |
| 1778133651 | 16.67° C | 72% | 1016.7 hPa | 0 mm | - | - | - |
| 1778132749 | 16.67° C | 72% | 1016.9 hPa | 0 mm | - | - | - |
| 1778131852 | 17.22° C | 71% | 1016.8 hPa | 0 mm | - | - | - |
| 1778130943 | 17.22° C | 71% | 1016.7 hPa | 0 mm | - | - | - |
* Rain latest hour (hover to see other rain measurements)
** Current wind speed in m/s (hover to see current wind gust speed)